Location: Bu�n Treun
(12.1333°N, 108.3167°E)
Time: 00:17:03
(UTC+00:00)

GPS 2-15 Rocket1 - Pass Details

Date: 13 July 2020
Orbit: 624 x 675 km, 19.8° (Epoch: 03 August)

Event Time Altitude Azimuth Distance (km) Brightness Sun altitude
Rises 12:19:48 0° 280° (W) 2,967 8.1 -15.0°
Reaches altitude 10° 12:22:13 10° 274° (W) 2,063 6.8 -15.6°
Maximum altitude 12:26:56 49° 200° (SSW) 850 3.7 -16.6°
Enters shadow 12:29:07 29° 141° (SE) 1,225 4.0 -17.1°
